Tracking 23764 objects as of 17-Oct-2021
HD Live streaming from Space Station
objects crossing your sky now

COSMOS 2209

Track COSMOS 2209 now!
COSMOS 2209 is classified as:


NORAD ID: 22112
Int'l Code: 1992-059A
Perigee: 35,764.4 km
Apogee: 35,831.5 km
Inclination: 14.7 °
Period: 1,436.3 minutes
Semi major axis: 42168 km
RCS: 5.0119 m2 (large)
Launch date: September 10, 1992
Source: Commonwealth of Independent States (former USSR) (CIS)
Launch site: TYURATAM MISSILE AND SPACE COMPLEX (TTMTR)
aabbcc
Your satellite tracking list
Your tracking list is empty




NASA's NSSDC Master Catalog

Two Line Element Set (TLE):
1 22112U 92059A   21288.99391785 -.00000226  00000-0  00000-0 0  9996
2 22112  14.6845 355.9097 0007953 322.3286  38.7748  1.00256901106521
Source of the keplerian elements: AFSPC